EW2795 Weather Reports


Display with metric or nautical units.
time (UTC)temp
F
wind
direction
speed
MPH
gust
MPH
rain 1hr
in
rain 24hr
in
rain mn
in
humidity
%
barometer
mb
20260831001523 74 74 0.0 0.0 0.00 0.00 0.00 88 1016.4
20260831000019 74 74 0.0 0.0 0.00 0.00 0.00 86 1016.3
20260830234606 75 74 0.0 0.0 0.00 0.00 0.00 85 1016.1
20260830233047 76 74 0.0 0.0 0.00 0.00 0.00 84 1015.7
20260830231539 77 74 0.0 0.0 0.00 0.00 0.00 82 1015.3
20260830230036 77 74 0.0 0.0 0.00 0.00 0.00 83 1015.2
20260830224529 77 74 0.0 0.0 0.00 0.00 0.00 82 1015.3
20260830223024 77 74 0.0 0.0 0.00 0.00 0.00 82 1015.3
20260830221513 77 74 0.0 0.0 0.00 0.00 0.00 82 1015.2
20260830220052 77 74 0.0 0.0 0.00 0.00 0.00 80 1015.1
20260830214545 78 74 0.0 0.0 0.00 0.00 0.00 80 1015.0
20260830213048 79 74 0.0 0.0 0.00 0.00 0.00 76 1014.9
20260830211526 80 74 1.0 0.0 0.00 0.00 0.00 76 1014.8
20260830210026 81 59 2.0 0.0 0.00 0.00 0.00 71 1015.1
20260830204533 82 44 1.0 0.0 0.00 0.00 0.00 69 1014.8
20260830203013 81 186 0.0 0.0 0.00 0.00 0.00 73 1015.1
20260830201557 79 194 0.0 0.0 0.00 0.00 0.00 77 1015.4
20260830200055 77 197 1.0 0.0 0.00 0.00 0.00 76 1015.6
20260830194540 77 201 2.0 0.0 0.00 0.00 0.00 75 1015.4
20260830193035 79 252 1.0 0.0 0.00 0.00 0.00 71 1016.8
20260830191531 80 261 2.0 0.0 0.00 0.00 0.00 71 1017.5
20260830190008 80 252 1.0 0.0 0.00 0.00 0.00 71 1017.7
20260830184506 80 259 1.0 0.0 0.00 0.00 0.00 68 1017.8
20260830183052 80 271 1.0 0.0 0.00 0.00 0.00 71 1018.0
20260830181544 80 261 2.0 0.0 0.00 0.00 0.00 68 1018.1
20260830180024 81 251 2.0 0.0 0.00 0.00 0.00 69 1018.2
20260830174517 80 332 3.0 0.0 0.00 0.00 0.00 71 1018.3
20260830173003 80 286 1.0 0.0 0.00 0.00 0.00 72 1018.3
20260830171552 80 269 2.0 0.0 0.00 0.00 0.00 71 1018.3
20260830170042 81 214 2.0 0.0 0.00 0.00 0.00 74 1018.4
20260830164525 77 237 1.0 0.0 0.00 0.00 0.00 82 1018.8
20260830163025 76 229 0.0 0.0 0.00 0.00 0.00 87 1019.1
20260830161514 76 229 0.0 0.0 0.00 0.00 0.00 86 1019.2
20260830160056 77 229 0.0 0.0 0.00 0.00 0.00 82 1019.1
20260830154550 78 229 0.0 0.0 0.00 0.00 0.00 80 1018.8
20260830153033 78 229 1.0 0.0 0.00 0.00 0.00 76 1018.5
20260830151524 78 235 2.0 0.0 0.00 0.00 0.00 78 1018.3
20260830150015 77 225 2.0 0.0 0.00 0.00 0.00 79 1018.0
20260830144600 76 196 3.0 0.0 0.00 0.00 0.00 79 1017.6
20260830144504 76 194 3.0 0.0 0.00 0.00 0.00 78 1017.6
20260830143050 75 175 2.0 0.0 0.00 0.00 0.00 80 1017.3
20260830141535 74 205 2.0 0.0 0.00 0.00 0.00 79 1017.4
20260830140023 74 192 2.0 0.0 0.00 0.00 0.00 80 1017.2
20260830134508 74 178 1.0 0.0 0.00 0.00 0.00 79 1017.2
20260830133058 73 187 3.0 0.0 0.00 0.00 0.00 79 1017.1
20260830133001 73 184 3.0 0.0 0.00 0.00 0.00 80 1017.1
20260830131543 72 195 3.0 0.0 0.00 0.00 0.00 82 1017.3
20260830130027 70 175 2.0 0.0 0.00 0.00 0.00 84 1017.5
20260830124521 69 184 0.0 0.0 0.00 0.00 0.00 87 1017.5
20260830123057 68 49 0.0 0.0 0.00 0.00 0.00 91 1017.6
20260830121553 67 48 0.0 0.0 0.00 0.00 0.00 92 1017.6
20260830120027 67 48 0.0 0.0 0.00 0.00 0.00 93 1017.8
20260830114515 67 48 0.0 0.0 0.00 0.00 0.00 92 1017.9
20260830113013 66 48 0.0 0.0 0.00 0.00 0.00 93 1017.8
20260830111547 66 48 0.0 0.0 0.00 0.00 0.00 92 1017.6
20260830110040 66 48 0.0 0.0 0.00 0.00 0.00 92 1017.6
20260830104537 66 48 0.0 0.0 0.00 0.00 0.00 92 1017.4
20260830103031 66 48 0.0 0.0 0.00 0.00 0.00 91 1017.3
20260830101540 66 48 0.0 0.0 0.00 0.00 0.00 91 1017.3
20260830100021 66 48 0.0 0.0 0.00 0.00 0.00 91 1017.3
20260830094513 66 48 0.0 0.0 0.00 0.00 0.00 91 1017.1
20260830093010 66 48 0.0 0.0 0.00 0.00 0.00 91 1017.1
20260830091557 66 47 0.0 0.0 0.00 0.00 0.00 91 1017.0
20260830090058 66 47 0.0 0.0 0.00 0.00 0.00 90 1017.0
20260830084539 66 46 0.0 0.0 0.00 0.00 0.00 90 1017.0
20260830083039 66 47 0.0 0.0 0.00 0.00 0.00 91 1017.2
20260830081524 66 47 0.0 0.0 0.00 0.00 0.00 90 1017.3
20260830080014 66 47 0.0 0.0 0.00 0.00 0.00 89 1017.2
20260830074618 66 46 0.0 0.0 0.00 0.00 0.00 90 1017.4
20260830073046 65 47 0.0 0.0 0.00 0.00 0.00 91 1017.3
20260830071536 64 48 0.0 0.0 0.00 0.00 0.00 91 1017.4
20260830070028 64 49 0.0 0.0 0.00 0.00 0.00 90 1017.5
20260830064520 65 48 0.0 0.0 0.00 0.00 0.00 90 1017.6
20260830063021 65 49 0.0 0.0 0.00 0.00 0.00 90 1017.6
20260830061511 64 48 0.0 0.0 0.00 0.00 0.00 91 1017.6
20260830060054 64 48 0.0 0.0 0.00 0.00 0.00 91 1017.7
20260830054540 64 49 0.0 0.0 0.00 0.00 0.00 91 1017.7
20260830053031 64 49 0.0 0.0 0.00 0.00 0.00 90 1017.8
20260830051523 65 48 0.0 0.0 0.00 0.00 0.00 90 1017.7
20260830050009 65 48 0.0 0.0 0.00 0.00 0.00 90 1017.7
20260830044511 65 48 0.0 0.0 0.00 0.00 0.00 90 1017.6
20260830043054 65 49 0.0 0.0 0.00 0.00 0.00 90 1017.5
20260830041556 65 48 0.0 0.0 0.00 0.00 0.00 90 1017.4
20260830040036 66 49 0.0 0.0 0.00 0.00 0.00 89 1017.4
20260830034537 66 49 0.0 0.0 0.00 0.00 0.00 88 1017.4
20260830033024 66 48 0.0 0.0 0.00 0.00 0.00 88 1017.4
20260830031514 67 48 0.0 0.0 0.00 0.00 0.00 87 1017.4
20260830030144 67 49 0.0 0.0 0.00 0.00 0.00 87 1017.4
20260830024539 67 49 0.0 0.0 0.00 0.00 0.00 86 1017.4
20260830023029 67 49 0.0 0.0 0.00 0.00 0.00 86 1017.5
20260830021513 67 48 0.0 0.0 0.00 0.00 0.00 87 1017.5
20260830020012 67 49 0.0 0.0 0.00 0.00 0.00 87 1017.5
20260830014613 68 49 0.0 0.0 0.00 0.00 0.00 87 1017.8
20260830014508 68 49 0.0 0.0 0.00 0.00 0.00 87 1017.8
20260830013107 68 49 0.0 0.0 0.00 0.00 0.00 87 1017.6
20260830013002 68 48 0.0 0.0 0.00 0.00 0.00 87 1017.5
20260830011553 69 49 0.0 0.0 0.00 0.00 0.00 87 1017.5
20260830010057 69 48 0.0 0.0 0.00 0.00 0.00 87 1017.2
20260830004542 70 49 0.0 0.0 0.00 0.00 0.00 87 1017.2
20260830003044 70 49 0.0 0.0 0.00 0.00 0.00 86 1017.3